Regional Weather Roundup
Issued by NWS

Home | Current Version | Previous Version | Text Only | Print | Product List | Glossary On
Versions: 1 2 3 4 5 6 7 8 9 10 11 12 13 14 15 16 17 18 19 20 21 22 23 24 25 26 27 28 29 30 31 32 33 34 35 36 37 38 39 40 41 42 43 44 45 46 47 48 49 50
000
ASUS42 KKEY 231110
RWRKEY

FLORIDA REGIONAL WEATHER ROUNDUP FOR THE FLORIDA KEYS
NATIONAL WEATHER SERVICE KEY WEST FLORIDA
700 AM EDT TUE MAY 23 2017

...SOUTH FLORIDA AND THE KEYS...

CITY           SKY/WX    TMP DP  RH WIND       PRES   REMARKS
FORT MYERS     CLEAR     74  72  93 S6        29.95R
SW REGIONAL AP CLEAR     73  70  90 SE5       29.96R
NAPLES         CLEAR     75  72  90 SE6       29.95S
MIAMI          MOCLDY    79  70  74 S3        29.97R
WEST KENDALL   PTCLDY    75  69  81 CALM      29.97R
HOMESTEAD      CLEAR     74  72  95 S3        29.97R
MARATHON       PTCLDY    81  73  76 S9        29.96R
BOCA CHICA NAS MOCLDY    80  74  81 SE15      29.95R
KEY WEST INTL  PTCLDY    81  74  79 SE17      29.95R

...INTERNATIONAL WEATHER...

CITY           SKY/WX    TMP DP  RH WIND       PRES   REMARKS
NASSAU BAHAMAS MOCLDY    81  70  69 SE3       30.00R
CANCUN MEXICO  PTCLDY    82  75  78 SE10      29.89R
COZUMEL MEXICO PTCLDY    79  75  89 SE6       29.87R

ADJACENT COASTAL WATERS...

STATION/POSITION TIME  SKY/WX   TEMP    WIND        PRES    WAVE
                                AIR SEA DIR/SP/G            HT/PER
                 (UTC)          (F)     (DEG/KT/KT) (MB)    (FT/S)
PULASKI SHOAL LI 1100            80     170/ 11/ 12 1014.0R
SAND KEY         1050            80     170/ 18/ 21 1014.4R
LONG KEY         1000            80 82  170/ 15/ 17 1014.2R
MOLASSES REEF    1100            80 81  180/ 12/ 13 1015.3R
FOWEY ROCKS      1100            79 81  170/ 12/ 13 1015.6R
Buoy 42097       1100                                 N/A     3/ 5

$$



USA.gov is the U.S. government's official web portal to all federal, state and local government web resources and services.